N633EX KLEE-KTMB

Flight info

Callsign N633EX
Flight time 1h 31m
Altitude 8000
Route PIE PALMZ2
Aircraft C208/L-SDFGR/C

Departure

Time 2026-05-07 01:06
Airport Leesburg International Airport (KLEE)

Arrival

Time 2026-05-07 02:37
Airport Miami Executive Airport (KTMB)
Time Latitude Longitude Altitude Speed Heading
2026-05-07 00:59 28.82075 -81.80250 84 ft 0 kts 163°
2026-05-07 01:00 28.82041 -81.80238 86 ft 8 kts 162°
2026-05-07 01:00 28.81968 -81.80164 83 ft 17 kts 130°
2026-05-07 01:00 28.81939 -81.80077 84 ft 13 kts 68°
2026-05-07 01:01 28.81904 -81.79962 83 ft 11 kts 113°
2026-05-07 01:01 28.81906 -81.79900 80 ft 7 kts 60°
2026-05-07 01:01 28.81899 -81.79864 80 ft 6 kts 115°
2026-05-07 01:01 28.81880 -81.79818 70 ft 7 kts 112°
2026-05-07 01:02 28.81861 -81.79751 72 ft 10 kts 104°
2026-05-07 01:02 28.81839 -81.79673 75 ft 11 kts 105°
2026-05-07 01:02 28.81822 -81.79587 71 ft 11 kts 114°
2026-05-07 01:02 28.81789 -81.79508 70 ft 11 kts 120°
2026-05-07 01:03 28.81751 -81.79444 74 ft 10 kts 131°
2026-05-07 01:03 28.81695 -81.79393 74 ft 11 kts 177°
2026-05-07 01:03 28.81621 -81.79405 72 ft 11 kts 188°
2026-05-07 01:03 28.81536 -81.79440 70 ft 21 kts 204°
2026-05-07 01:04 28.81299 -81.79511 75 ft 46 kts 186°
2026-05-07 01:04 28.80960 -81.79495 67 ft 49 kts 175°
2026-05-07 01:04 28.80576 -81.79491 76 ft 64 kts 192°
2026-05-07 01:04 28.80069 -81.79574 94 ft 82 kts 191°
2026-05-07 01:05 28.79486 -81.79617 202 ft 88 kts 182°
2026-05-07 01:05 28.78843 -81.79579 321 ft 98 kts 179°
2026-05-07 01:05 28.78109 -81.79439 403 ft 113 kts 172°
2026-05-07 01:05 28.77307 -81.79228 640 ft 117 kts 174°
2026-05-07 01:06 28.76570 -81.79370 895 ft 108 kts 211°
2026-05-07 01:06 28.75861 -81.79726 1082 ft 110 kts 208°
2026-05-07 01:06 28.75141 -81.80016 1309 ft 109 kts 204°
2026-05-07 01:06 28.74410 -81.80271 1500 ft 115 kts 204°
2026-05-07 01:07 28.73609 -81.80559 1711 ft 123 kts 202°
2026-05-07 01:07 28.72780 -81.80863 1856 ft 127 kts 200°
2026-05-07 01:07 28.71920 -81.81179 2033 ft 133 kts 200°
2026-05-07 01:07 28.71026 -81.81523 2213 ft 138 kts 199°
2026-05-07 01:08 28.70124 -81.81887 2367 ft 140 kts 199°
2026-05-07 01:08 28.69184 -81.82268 2547 ft 143 kts 199°
2026-05-07 01:08 28.68247 -81.82655 2710 ft 144 kts 198°
2026-05-07 01:08 28.67324 -81.83040 2900 ft 142 kts 197°
2026-05-07 01:09 28.66440 -81.83410 3255 ft 126 kts 196°
2026-05-07 01:09 28.65681 -81.83739 3654 ft 107 kts 197°
2026-05-07 01:09 28.65047 -81.84028 4039 ft 89 kts 197°
2026-05-07 01:09 28.64500 -81.84261 4260 ft 84 kts 193°
2026-05-07 01:10 28.63985 -81.84427 4461 ft 74 kts 188°
2026-05-07 01:10 28.63385 -81.84566 4503 ft 92 kts 184°
2026-05-07 01:10 28.62727 -81.84647 4639 ft 100 kts 178°
2026-05-07 01:10 28.61994 -81.84697 4764 ft 111 kts 181°
2026-05-07 01:11 28.61201 -81.84764 4861 ft 120 kts 181°
2026-05-07 01:11 28.60345 -81.84845 5008 ft 124 kts 182°
2026-05-07 01:11 28.59504 -81.84918 5247 ft 118 kts 181°
2026-05-07 01:11 28.58696 -81.84996 5531 ft 114 kts 182°
2026-05-07 01:12 28.57915 -81.85078 5795 ft 111 kts 183°
2026-05-07 01:12 28.57420 -81.85134 5955 ft 105 kts 181°
2026-05-07 01:12 28.56723 -81.85213 6218 ft 96 kts 183°
2026-05-07 01:12 28.56078 -81.85268 6450 ft 92 kts 181°
2026-05-07 01:13 28.55429 -81.85321 6586 ft 95 kts 182°
2026-05-07 01:13 28.54760 -81.85366 6720 ft 98 kts 182°
2026-05-07 01:13 28.54060 -81.85412 6852 ft 104 kts 182°
2026-05-07 01:13 28.53324 -81.85459 6963 ft 108 kts 182°
2026-05-07 01:14 28.52560 -81.85506 7076 ft 112 kts 182°
2026-05-07 01:14 28.51768 -81.85548 7193 ft 116 kts 182°
2026-05-07 01:14 28.50950 -81.85587 7303 ft 119 kts 182°
2026-05-07 01:14 28.50110 -81.85622 7426 ft 122 kts 182°
2026-05-07 01:15 28.49250 -81.85654 7539 ft 125 kts 182°
2026-05-07 01:15 28.48375 -81.85688 7658 ft 127 kts 182°
2026-05-07 01:15 28.47489 -81.85714 7793 ft 127 kts 182°
2026-05-07 01:15 28.46610 -81.85736 7957 ft 125 kts 182°
2026-05-07 01:16 28.45757 -81.85753 8121 ft 123 kts 182°
2026-05-07 01:16 28.44904 -81.85769 8282 ft 122 kts 182°
2026-05-07 01:16 28.44066 -81.85783 8450 ft 119 kts 182°
2026-05-07 01:16 28.43244 -81.85793 8629 ft 117 kts 182°
2026-05-07 01:17 28.42432 -81.85786 8805 ft 116 kts 182°
2026-05-07 01:17 28.41629 -81.85779 8969 ft 114 kts 181°
2026-05-07 01:17 28.40836 -81.85794 9138 ft 113 kts 182°
2026-05-07 01:17 28.40059 -81.85802 9307 ft 110 kts 182°
2026-05-07 01:18 28.39301 -81.85803 9482 ft 107 kts 182°
2026-05-07 01:18 28.38582 -81.85796 9647 ft 103 kts 182°
2026-05-07 01:18 28.37879 -81.85774 9814 ft 99 kts 182°
2026-05-07 01:18 28.37189 -81.85748 9921 ft 100 kts 182°
2026-05-07 01:19 28.36489 -81.85718 10023 ft 101 kts 182°
2026-05-07 01:19 28.35783 -81.85686 10121 ft 102 kts 182°
2026-05-07 01:19 28.35068 -81.85656 10214 ft 103 kts 182°
2026-05-07 01:19 28.34343 -81.85643 10313 ft 106 kts 182°
2026-05-07 01:20 28.33587 -81.85629 10388 ft 111 kts 182°
2026-05-07 01:20 28.32792 -81.85620 10461 ft 118 kts 181°
2026-05-07 01:20 28.31927 -81.85605 10494 ft 130 kts 182°
2026-05-07 01:20 28.30981 -81.85590 10505 ft 142 kts 181°
2026-05-07 01:21 28.29958 -81.85595 10517 ft 151 kts 182°
2026-05-07 01:21 28.28889 -81.85605 10508 ft 156 kts 182°
2026-05-07 01:21 28.27801 -81.85600 10508 ft 157 kts 182°
2026-05-07 01:21 28.26704 -81.85587 10504 ft 158 kts 181°
2026-05-07 01:22 28.25606 -81.85587 10506 ft 158 kts 182°
2026-05-07 01:22 28.24503 -81.85568 10514 ft 159 kts 181°
2026-05-07 01:22 28.23395 -81.85561 10517 ft 160 kts 182°
2026-05-07 01:22 28.22286 -81.85550 10512 ft 159 kts 182°
2026-05-07 01:23 28.21179 -81.85546 10511 ft 159 kts 182°
2026-05-07 01:23 28.20071 -81.85536 10512 ft 160 kts 182°
2026-05-07 01:23 28.18961 -81.85540 10517 ft 160 kts 182°
2026-05-07 01:23 28.17846 -81.85553 10520 ft 160 kts 183°
2026-05-07 01:24 28.16725 -81.85549 10522 ft 161 kts 182°
2026-05-07 01:24 28.15601 -81.85542 10521 ft 162 kts 181°
2026-05-07 01:24 28.14476 -81.85538 10514 ft 162 kts 182°
2026-05-07 01:24 28.13349 -81.85518 10515 ft 162 kts 182°
2026-05-07 01:25 28.12225 -81.85512 10509 ft 161 kts 182°
2026-05-07 01:25 28.11120 -81.85541 10511 ft 161 kts 182°
2026-05-07 01:25 28.10003 -81.85570 10514 ft 160 kts 182°
2026-05-07 01:25 28.08886 -81.85601 10516 ft 160 kts 182°
2026-05-07 01:26 28.07767 -81.85629 10516 ft 160 kts 182°
2026-05-07 01:26 28.06652 -81.85662 10517 ft 160 kts 182°
2026-05-07 01:26 28.05536 -81.85690 10519 ft 161 kts 182°
2026-05-07 01:26 28.04419 -81.85722 10522 ft 161 kts 182°
2026-05-07 01:27 28.03298 -81.85749 10519 ft 161 kts 182°
2026-05-07 01:27 28.02174 -81.85776 10517 ft 161 kts 182°
2026-05-07 01:27 28.01056 -81.85810 10526 ft 160 kts 182°
2026-05-07 01:27 27.99946 -81.85917 10528 ft 160 kts 188°
2026-05-07 01:28 27.98840 -81.86090 10526 ft 161 kts 189°
2026-05-07 01:28 27.97737 -81.86286 10529 ft 161 kts 190°
2026-05-07 01:28 27.96631 -81.86487 10530 ft 161 kts 189°
2026-05-07 01:28 27.95525 -81.86689 10529 ft 161 kts 190°
2026-05-07 01:29 27.94420 -81.86894 10528 ft 161 kts 190°
2026-05-07 01:29 27.93311 -81.87099 10528 ft 161 kts 190°
2026-05-07 01:29 27.92198 -81.87304 10527 ft 161 kts 190°
2026-05-07 01:29 27.91091 -81.87512 10527 ft 161 kts 190°
2026-05-07 01:30 27.89998 -81.87716 10527 ft 161 kts 190°
2026-05-07 01:30 27.88894 -81.87927 10527 ft 161 kts 190°
2026-05-07 01:30 27.87793 -81.88138 10526 ft 160 kts 190°
2026-05-07 01:30 27.86696 -81.88341 10524 ft 160 kts 190°
2026-05-07 01:31 27.85599 -81.88549 10522 ft 160 kts 190°
2026-05-07 01:31 27.84499 -81.88749 10526 ft 160 kts 190°
2026-05-07 01:31 27.83397 -81.88953 10525 ft 160 kts 189°
2026-05-07 01:31 27.82294 -81.89167 10522 ft 161 kts 190°
2026-05-07 01:32 27.81189 -81.89394 10525 ft 162 kts 190°
2026-05-07 01:32 27.80079 -81.89623 10523 ft 162 kts 190°
2026-05-07 01:32 27.78971 -81.89851 10521 ft 162 kts 190°
2026-05-07 01:32 27.77861 -81.90078 10524 ft 162 kts 190°
2026-05-07 01:33 27.76750 -81.90305 10517 ft 163 kts 190°
2026-05-07 01:33 27.75635 -81.90536 10516 ft 163 kts 190°
2026-05-07 01:33 27.74517 -81.90767 10516 ft 163 kts 190°
2026-05-07 01:33 27.73412 -81.90994 10519 ft 163 kts 190°
2026-05-07 01:34 27.72294 -81.91225 10516 ft 163 kts 190°
2026-05-07 01:34 27.71179 -81.91454 10517 ft 163 kts 190°
2026-05-07 01:34 27.70066 -81.91684 10516 ft 162 kts 190°
2026-05-07 01:34 27.68954 -81.91914 10515 ft 162 kts 190°
2026-05-07 01:35 27.67842 -81.92143 10512 ft 163 kts 190°
2026-05-07 01:35 27.66732 -81.92372 10513 ft 162 kts 190°
2026-05-07 01:35 27.65620 -81.92602 10511 ft 162 kts 190°
2026-05-07 01:35 27.64509 -81.92832 10510 ft 162 kts 190°
2026-05-07 01:36 27.63397 -81.93062 10512 ft 162 kts 190°
2026-05-07 01:36 27.62288 -81.93291 10511 ft 162 kts 190°
2026-05-07 01:36 27.61179 -81.93520 10510 ft 162 kts 190°
2026-05-07 01:36 27.60061 -81.93604 10511 ft 162 kts 174°
2026-05-07 01:37 27.58944 -81.93469 10508 ft 161 kts 173°
2026-05-07 01:37 27.57826 -81.93303 10511 ft 162 kts 171°
2026-05-07 01:37 27.56709 -81.93118 10512 ft 162 kts 171°
2026-05-07 01:37 27.55588 -81.92921 10513 ft 163 kts 170°
2026-05-07 01:38 27.54467 -81.92718 10510 ft 163 kts 170°
2026-05-07 01:38 27.53345 -81.92512 10509 ft 163 kts 170°
2026-05-07 01:38 27.52237 -81.92309 10511 ft 163 kts 170°
2026-05-07 01:38 27.51110 -81.92170 10507 ft 163 kts 176°
2026-05-07 01:39 27.49979 -81.92151 10506 ft 162 kts 180°
2026-05-07 01:39 27.48851 -81.92176 10507 ft 162 kts 181°
2026-05-07 01:39 27.47720 -81.92219 10512 ft 163 kts 182°
2026-05-07 01:39 27.46584 -81.92269 10508 ft 163 kts 182°
2026-05-07 01:40 27.45453 -81.92325 10511 ft 163 kts 182°
2026-05-07 01:40 27.44317 -81.92385 10514 ft 163 kts 182°
2026-05-07 01:40 27.43184 -81.92444 10512 ft 163 kts 182°
2026-05-07 01:40 27.42052 -81.92504 10508 ft 163 kts 182°
2026-05-07 01:41 27.40923 -81.92562 10510 ft 162 kts 182°
2026-05-07 01:41 27.39790 -81.92620 10510 ft 163 kts 182°
2026-05-07 01:41 27.38660 -81.92679 10512 ft 162 kts 182°
2026-05-07 01:41 27.37530 -81.92740 10508 ft 162 kts 182°
2026-05-07 01:42 27.36414 -81.92798 10504 ft 162 kts 182°
2026-05-07 01:42 27.35289 -81.92859 10513 ft 162 kts 182°
2026-05-07 01:42 27.34162 -81.92921 10515 ft 163 kts 182°
2026-05-07 01:42 27.33031 -81.92980 10516 ft 163 kts 182°
2026-05-07 01:43 27.31899 -81.93040 10514 ft 163 kts 182°
2026-05-07 01:43 27.30759 -81.93098 10513 ft 164 kts 182°
2026-05-07 01:43 27.29625 -81.93156 10512 ft 163 kts 182°
2026-05-07 01:43 27.28491 -81.93214 10513 ft 163 kts 182°
2026-05-07 01:44 27.27354 -81.93276 10513 ft 163 kts 182°
2026-05-07 01:44 27.26218 -81.93337 10512 ft 164 kts 182°
2026-05-07 01:44 27.25082 -81.93401 10512 ft 163 kts 182°
2026-05-07 01:44 27.23945 -81.93464 10512 ft 163 kts 182°
2026-05-07 01:45 27.22811 -81.93534 10511 ft 163 kts 182°
2026-05-07 01:45 27.21674 -81.93611 10511 ft 163 kts 182°
2026-05-07 01:45 27.20537 -81.93685 10520 ft 164 kts 182°
2026-05-07 01:45 27.19397 -81.93689 10518 ft 164 kts 176°
2026-05-07 01:46 27.18267 -81.93609 10520 ft 164 kts 174°
2026-05-07 01:46 27.17126 -81.93510 10526 ft 165 kts 174°
2026-05-07 01:46 27.15984 -81.93397 10528 ft 165 kts 173°
2026-05-07 01:46 27.14852 -81.93287 10517 ft 165 kts 173°
2026-05-07 01:47 27.13707 -81.93177 10516 ft 165 kts 173°
2026-05-07 01:47 27.12567 -81.93058 10524 ft 165 kts 173°
2026-05-07 01:47 27.11425 -81.92933 10524 ft 165 kts 173°
2026-05-07 01:47 27.10279 -81.92816 10520 ft 165 kts 173°
2026-05-07 01:48 27.09131 -81.92688 10518 ft 165 kts 173°
2026-05-07 01:48 27.07988 -81.92558 10525 ft 165 kts 173°
2026-05-07 01:48 27.06843 -81.92433 10522 ft 166 kts 173°
2026-05-07 01:48 27.05695 -81.92313 10523 ft 166 kts 173°
2026-05-07 01:49 27.04551 -81.92185 10519 ft 165 kts 173°
2026-05-07 01:49 27.03413 -81.92045 10520 ft 164 kts 165°
2026-05-07 01:49 27.02462 -81.91398 10527 ft 160 kts 138°
2026-05-07 01:49 27.01621 -81.90576 10528 ft 161 kts 136°
2026-05-07 01:50 27.00800 -81.89720 10526 ft 161 kts 134°
2026-05-07 01:50 26.99995 -81.88843 10530 ft 161 kts 134°
2026-05-07 01:50 26.99208 -81.87971 10528 ft 161 kts 133°
2026-05-07 01:50 26.98404 -81.87092 10522 ft 161 kts 133°
2026-05-07 01:51 26.97613 -81.86209 10522 ft 160 kts 133°
2026-05-07 01:51 26.96828 -81.85315 10522 ft 161 kts 133°
2026-05-07 01:51 26.96042 -81.84426 10525 ft 161 kts 133°
2026-05-07 01:51 26.95248 -81.83539 10528 ft 161 kts 133°
2026-05-07 01:52 26.94448 -81.82655 10521 ft 162 kts 133°
2026-05-07 01:52 26.93646 -81.81769 10520 ft 161 kts 133°
2026-05-07 01:52 26.92846 -81.80888 10521 ft 161 kts 133°
2026-05-07 01:52 26.92053 -81.80007 10523 ft 161 kts 133°
2026-05-07 01:53 26.91257 -81.79124 10519 ft 161 kts 133°
2026-05-07 01:53 26.90459 -81.78242 10522 ft 161 kts 133°
2026-05-07 01:53 26.89663 -81.77357 10518 ft 161 kts 133°
2026-05-07 01:53 26.88869 -81.76470 10517 ft 161 kts 133°
2026-05-07 01:54 26.88076 -81.75585 10518 ft 161 kts 133°
2026-05-07 01:54 26.87279 -81.74694 10517 ft 162 kts 133°
2026-05-07 01:54 26.86493 -81.73813 10516 ft 162 kts 133°
2026-05-07 01:54 26.85687 -81.72911 10511 ft 162 kts 133°
2026-05-07 01:55 26.84896 -81.72036 10511 ft 162 kts 133°
2026-05-07 01:55 26.84095 -81.71148 10513 ft 162 kts 133°
2026-05-07 01:55 26.83290 -81.70259 10504 ft 162 kts 133°
2026-05-07 01:55 26.82493 -81.69374 10502 ft 161 kts 133°
2026-05-07 01:56 26.81702 -81.68494 10509 ft 160 kts 133°
2026-05-07 01:56 26.80911 -81.67610 10508 ft 161 kts 133°
2026-05-07 01:56 26.80387 -81.67029 10508 ft 160 kts 133°
2026-05-07 01:56 26.79593 -81.66148 10509 ft 161 kts 133°
2026-05-07 01:57 26.78536 -81.64977 10501 ft 161 kts 133°
2026-05-07 01:57 26.77999 -81.64398 10499 ft 161 kts 133°
2026-05-07 01:57 26.77191 -81.63532 10500 ft 161 kts 133°
2026-05-07 01:57 26.76387 -81.62667 10499 ft 160 kts 133°
2026-05-07 01:58 26.75584 -81.61807 10494 ft 159 kts 133°
2026-05-07 01:58 26.74787 -81.60948 10504 ft 160 kts 133°
2026-05-07 01:58 26.73991 -81.60091 10501 ft 160 kts 133°
2026-05-07 01:58 26.73191 -81.59223 10501 ft 160 kts 133°
2026-05-07 01:59 26.72396 -81.58346 10500 ft 160 kts 132°
2026-05-07 01:59 26.71597 -81.57471 10506 ft 161 kts 133°
2026-05-07 01:59 26.70801 -81.56592 10510 ft 161 kts 133°
2026-05-07 01:59 26.70005 -81.55704 10504 ft 162 kts 133°
2026-05-07 02:00 26.69243 -81.54775 10504 ft 162 kts 125°
2026-05-07 02:00 26.68555 -81.53781 10496 ft 161 kts 124°
2026-05-07 02:00 26.67886 -81.52776 10496 ft 160 kts 124°
2026-05-07 02:00 26.67238 -81.51762 10503 ft 160 kts 123°
2026-05-07 02:01 26.66592 -81.50742 10509 ft 161 kts 123°
2026-05-07 02:01 26.65939 -81.49723 10506 ft 162 kts 123°
2026-05-07 02:01 26.65292 -81.48689 10500 ft 162 kts 122°
2026-05-07 02:01 26.64645 -81.47681 10497 ft 161 kts 123°
2026-05-07 02:02 26.63994 -81.46659 10505 ft 162 kts 123°
2026-05-07 02:02 26.63348 -81.45630 10501 ft 162 kts 123°
2026-05-07 02:02 26.62692 -81.44607 10502 ft 161 kts 123°
2026-05-07 02:02 26.62038 -81.43585 10499 ft 161 kts 123°
2026-05-07 02:03 26.61386 -81.42572 10495 ft 160 kts 123°
2026-05-07 02:03 26.60738 -81.41570 10500 ft 159 kts 123°
2026-05-07 02:03 26.60094 -81.40571 10505 ft 158 kts 123°
2026-05-07 02:03 26.59407 -81.39607 10506 ft 159 kts 129°
2026-05-07 02:04 26.58653 -81.38697 10510 ft 160 kts 130°
2026-05-07 02:04 26.57878 -81.37799 10506 ft 161 kts 131°
2026-05-07 02:04 26.57098 -81.36906 10503 ft 161 kts 131°
2026-05-07 02:04 26.56315 -81.36017 10499 ft 160 kts 132°
2026-05-07 02:05 26.55534 -81.35137 10508 ft 159 kts 132°
2026-05-07 02:05 26.54753 -81.34258 10510 ft 159 kts 131°
2026-05-07 02:05 26.53974 -81.33382 10513 ft 159 kts 132°
2026-05-07 02:05 26.53196 -81.32506 10506 ft 158 kts 132°
2026-05-07 02:06 26.52429 -81.31643 10504 ft 158 kts 132°
2026-05-07 02:06 26.51654 -81.30774 10511 ft 158 kts 132°
2026-05-07 02:06 26.50879 -81.29904 10511 ft 158 kts 132°
2026-05-07 02:06 26.50106 -81.29035 10508 ft 157 kts 132°
2026-05-07 02:07 26.49334 -81.28167 10510 ft 157 kts 132°
2026-05-07 02:07 26.47790 -81.26426 10517 ft 158 kts 132°
2026-05-07 02:07 26.47013 -81.25547 10520 ft 159 kts 132°
2026-05-07 02:08 26.46236 -81.24669 10510 ft 159 kts 132°
2026-05-07 02:08 26.45458 -81.23789 10507 ft 159 kts 132°
2026-05-07 02:08 26.44684 -81.22913 10510 ft 158 kts 132°
2026-05-07 02:08 26.43911 -81.22040 10511 ft 158 kts 131°
2026-05-07 02:09 26.43139 -81.21165 10514 ft 158 kts 132°
2026-05-07 02:09 26.42365 -81.20289 10515 ft 158 kts 132°
2026-05-07 02:09 26.41602 -81.19424 10520 ft 159 kts 132°
2026-05-07 02:09 26.40826 -81.18546 10521 ft 159 kts 132°
2026-05-07 02:10 26.40047 -81.17662 10517 ft 159 kts 132°
2026-05-07 02:10 26.39270 -81.16781 10519 ft 159 kts 132°
2026-05-07 02:10 26.38490 -81.15898 10519 ft 160 kts 132°
2026-05-07 02:10 26.37712 -81.15014 10517 ft 159 kts 132°
2026-05-07 02:11 26.36936 -81.14135 10510 ft 159 kts 132°
2026-05-07 02:11 26.36159 -81.13253 10516 ft 159 kts 132°
2026-05-07 02:11 26.35382 -81.12370 10516 ft 160 kts 132°
2026-05-07 02:11 26.34601 -81.11481 10520 ft 160 kts 132°
2026-05-07 02:12 26.33822 -81.10596 10520 ft 160 kts 132°
2026-05-07 02:12 26.33045 -81.09710 10522 ft 160 kts 131°
2026-05-07 02:12 26.32280 -81.08839 10519 ft 159 kts 132°
2026-05-07 02:12 26.31506 -81.07957 10518 ft 159 kts 131°
2026-05-07 02:13 26.30731 -81.07075 10521 ft 159 kts 132°
2026-05-07 02:13 26.29955 -81.06191 10519 ft 159 kts 131°
2026-05-07 02:13 26.29179 -81.05307 10523 ft 159 kts 131°
2026-05-07 02:13 26.28404 -81.04424 10514 ft 159 kts 132°
2026-05-07 02:14 26.27634 -81.03545 10520 ft 158 kts 131°
2026-05-07 02:14 26.26863 -81.02665 10520 ft 158 kts 132°
2026-05-07 02:14 26.26027 -81.01862 10522 ft 159 kts 139°
2026-05-07 02:14 26.25149 -81.01115 10523 ft 159 kts 141°
2026-05-07 02:15 26.24258 -81.00381 10521 ft 159 kts 141°
2026-05-07 02:15 26.23363 -80.99656 10524 ft 159 kts 141°
2026-05-07 02:15 26.22466 -80.98935 10525 ft 159 kts 141°
2026-05-07 02:15 26.21567 -80.98215 10529 ft 159 kts 142°
2026-05-07 02:16 26.20669 -80.97497 10531 ft 159 kts 142°
2026-05-07 02:16 26.19766 -80.96777 10528 ft 159 kts 142°
2026-05-07 02:16 26.18865 -80.96059 10530 ft 159 kts 142°
2026-05-07 02:16 26.17973 -80.95349 10529 ft 159 kts 142°
2026-05-07 02:17 26.17070 -80.94630 10531 ft 159 kts 142°
2026-05-07 02:17 26.16105 -80.94015 10530 ft 161 kts 153°
2026-05-07 02:17 26.15041 -80.93609 10528 ft 162 kts 161°
2026-05-07 02:17 26.13954 -80.93285 10529 ft 162 kts 163°
2026-05-07 02:18 26.12863 -80.92979 10527 ft 162 kts 163°
2026-05-07 02:18 26.11770 -80.92678 10529 ft 162 kts 163°
2026-05-07 02:18 26.10675 -80.92379 10529 ft 162 kts 163°
2026-05-07 02:18 26.09578 -80.92082 10528 ft 162 kts 163°
2026-05-07 02:19 26.08484 -80.91785 10531 ft 162 kts 163°
2026-05-07 02:19 26.07391 -80.91488 10533 ft 162 kts 163°
2026-05-07 02:19 26.06286 -80.91252 10535 ft 163 kts 176°
2026-05-07 02:19 26.05161 -80.91281 10534 ft 164 kts 180°
2026-05-07 02:20 26.04020 -80.91365 10529 ft 164 kts 182°
2026-05-07 02:20 26.02883 -80.91474 10528 ft 164 kts 183°
2026-05-07 02:20 26.01743 -80.91596 10529 ft 164 kts 183°
2026-05-07 02:20 26.00605 -80.91723 10526 ft 164 kts 184°
2026-05-07 02:21 25.99465 -80.91853 10531 ft 165 kts 184°
2026-05-07 02:21 25.98326 -80.91984 10532 ft 164 kts 184°
2026-05-07 02:21 25.97187 -80.92116 10534 ft 165 kts 183°
2026-05-07 02:21 25.96046 -80.92258 10531 ft 165 kts 184°
2026-05-07 02:22 25.94900 -80.92404 10534 ft 166 kts 184°
2026-05-07 02:22 25.93754 -80.92550 10536 ft 166 kts 184°
2026-05-07 02:22 25.92607 -80.92696 10537 ft 166 kts 184°
2026-05-07 02:22 25.91469 -80.92840 10535 ft 166 kts 184°
2026-05-07 02:23 25.90320 -80.92986 10533 ft 166 kts 184°
2026-05-07 02:23 25.89169 -80.93131 10533 ft 166 kts 184°
2026-05-07 02:23 25.88016 -80.93251 10532 ft 165 kts 174°
2026-05-07 02:23 25.86970 -80.92823 10478 ft 163 kts 148°
2026-05-07 02:24 25.85911 -80.92157 10065 ft 185 kts 146°
2026-05-07 02:24 25.84785 -80.91380 9650 ft 195 kts 145°
2026-05-07 02:24 25.83634 -80.90550 9227 ft 199 kts 144°
2026-05-07 02:24 25.82466 -80.89703 8803 ft 201 kts 144°
2026-05-07 02:25 25.81296 -80.88850 8388 ft 201 kts 144°
2026-05-07 02:25 25.80141 -80.88007 7973 ft 192 kts 144°
2026-05-07 02:25 25.79068 -80.87226 7564 ft 179 kts 144°
2026-05-07 02:25 25.78046 -80.86479 7159 ft 173 kts 143°
2026-05-07 02:26 25.77051 -80.85754 6759 ft 170 kts 143°
2026-05-07 02:26 25.76060 -80.85028 6258 ft 172 kts 144°
2026-05-07 02:26 25.75065 -80.84294 5742 ft 172 kts 144°
2026-05-07 02:26 25.74110 -80.83500 5228 ft 171 kts 130°
2026-05-07 02:27 25.73387 -80.82470 4730 ft 172 kts 124°
2026-05-07 02:27 25.72709 -80.81405 4314 ft 166 kts 122°
2026-05-07 02:27 25.72081 -80.80348 3922 ft 163 kts 122°
2026-05-07 02:27 25.71490 -80.79284 3539 ft 161 kts 121°
2026-05-07 02:28 25.70931 -80.78217 3158 ft 159 kts 120°
2026-05-07 02:28 25.70385 -80.77155 2756 ft 158 kts 121°
2026-05-07 02:28 25.69854 -80.76103 2394 ft 154 kts 120°
2026-05-07 02:28 25.69371 -80.75086 2204 ft 146 kts 117°
2026-05-07 02:29 25.68937 -80.74065 2122 ft 146 kts 117°
2026-05-07 02:29 25.68521 -80.73042 2087 ft 145 kts 116°
2026-05-07 02:29 25.68116 -80.72028 2065 ft 143 kts 116°
2026-05-07 02:29 25.67712 -80.71022 2045 ft 141 kts 116°
2026-05-07 02:30 25.67319 -80.70036 2037 ft 138 kts 115°
2026-05-07 02:30 25.66932 -80.69066 2045 ft 138 kts 115°
2026-05-07 02:30 25.66545 -80.68090 2048 ft 138 kts 116°
2026-05-07 02:30 25.66156 -80.67113 2038 ft 139 kts 115°
2026-05-07 02:31 25.65873 -80.66090 2047 ft 140 kts 101°
2026-05-07 02:31 25.65746 -80.65015 2055 ft 142 kts 98°
2026-05-07 02:31 25.65644 -80.63928 2035 ft 141 kts 100°
2026-05-07 02:31 25.65446 -80.62881 2055 ft 142 kts 106°
2026-05-07 02:32 25.65176 -80.61826 2041 ft 142 kts 109°
2026-05-07 02:32 25.64883 -80.60777 2034 ft 143 kts 110°
2026-05-07 02:32 25.64574 -80.59737 2039 ft 142 kts 110°
2026-05-07 02:32 25.64239 -80.58711 2037 ft 141 kts 108°
2026-05-07 02:33 25.64057 -80.57629 1971 ft 144 kts 98°
2026-05-07 02:33 25.63971 -80.56523 1952 ft 144 kts 93°
2026-05-07 02:33 25.63961 -80.55418 1957 ft 141 kts 90°
2026-05-07 02:33 25.63979 -80.54349 1972 ft 138 kts 89°
2026-05-07 02:34 25.64001 -80.53331 1908 ft 125 kts 90°
2026-05-07 02:34 25.64001 -80.52386 1719 ft 123 kts 90°
2026-05-07 02:34 25.64028 -80.51433 1495 ft 124 kts 89°
2026-05-07 02:34 25.64076 -80.50488 1337 ft 118 kts 88°
2026-05-07 02:35 25.64124 -80.49629 1291 ft 106 kts 87°
2026-05-07 02:35 25.64166 -80.48846 1166 ft 98 kts 91°
2026-05-07 02:35 25.64170 -80.48133 1001 ft 90 kts 91°
2026-05-07 02:35 25.64177 -80.47451 828 ft 90 kts 90°
2026-05-07 02:36 25.64190 -80.46765 630 ft 84 kts 88°
2026-05-07 02:36 25.64216 -80.46186 487 ft 70 kts 88°
2026-05-07 02:36 25.64241 -80.45653 344 ft 70 kts 87°
2026-05-07 02:36 25.64257 -80.45113 241 ft 70 kts 89°
2026-05-07 02:37 25.64280 -80.44565 148 ft 70 kts 91°
2026-05-07 02:37 25.64295 -80.44022 41 ft 68 kts 88°
2026-05-07 02:37 25.64315 -80.43568 21 ft 51 kts 86°
2026-05-07 02:37 25.64329 -80.43219 20 ft 37 kts 86°
2026-05-07 02:38 25.64344 -80.43029 24 ft 15 kts 63°
2026-05-07 02:38 25.64433 -80.42992 23 ft 11 kts 29°
2026-05-07 02:38 25.64454 -80.42896 24 ft 13 kts 92°
2026-05-07 02:38 25.64509 -80.42881 27 ft 12 kts 304°
2026-05-07 02:39 25.64518 -80.42967 26 ft 10 kts 321°
2026-05-07 02:39 25.64532 -80.42970 23 ft 0 kts 11°
2026-05-07 02:41 25.64531 -80.42970 23 ft 0 kts 11°